{"data":{"norad_id":66922,"intl_designator":"2025-285H","name":"HULIANWANG DIGUI-112","alt_names":[],"object_type":"PAYLOAD","status":"ACTIVE","operator":null,"country":"PRC","launch_date":"2025-12-06","launch_site_code":"WSC","launch_vehicle":null,"mission":null,"orbit_class":"UNKNOWN","rcs_meters":null,"size_class":null,"mass_kg":null,"dimensions":null,"purposes":[],"wikipedia_slug":null,"has_3d_model":false,"image_url":null,"decayed_at":null,"tle_current":{"epoch":"2026-05-25T04:30:20.112192Z","epoch_age_seconds":58894,"freshness":"FRESH","line1":"1 66922U 25285H   26145.18773278 -.00000097  00000+0  58423-4 0  9990","line2":"2 66922  50.0080 228.2433 0001064 211.8768 148.2040 13.29325211 23001","mean_motion":13.29325211,"eccentricity":0.0001064,"inclination_deg":50.008,"raan_deg":228.2433,"arg_perigee_deg":211.8768,"mean_anomaly_deg":148.204,"bstar":5.8423e-5,"rev_number":2300,"period_min":108.32563680311,"perigee_km":1148.5086300708,"apogee_km":1150.1104706967,"semimajor_km":7527.4465503837,"source":"CELESTRAK","updated_at":"2026-05-25T13:38:06.595259Z"}}}